Location: Chiroubles
(46.1812°N, 4.6660°E)
Time: 19:19:51
(UTC+00:00)

Cosmos 1733 Rocket - Pass Details

Date: 15 August 2020
Orbit: 603 x 628 km, 82.5° (Epoch: 24 September)

Event Time Altitude Azimuth Distance (km) Brightness Sun altitude
Exits shadow 21:29:39 38° 68° (ENE) 960 3.9 -22.8°
Drops below altitude 10° 21:33:07 10° 23° (NNE) 2,006 6.1 -23.1°
Sets 21:35:27 0° 16° (NNE) 2,921 7.1 -23.3°
